Time,TemperatureF,DewpointF,PressureIn,WindDirection,WindDirectionDegrees,WindSpeedMPH,WindSpeedGustMPH,Humidity,HourlyPrecipIn,Conditions,Clouds,dailyrainin,SoftwareType,DateUTC
2013-02-13 00:02:00,40.0,38.0,30.09,NW,326,2.0,9.0,93,0.01,,,0.35,,2013-02-13 06:02:00,
2013-02-13 00:11:00,40.0,38.0,30.09,NW,326,2.0,9.0,93,0.01,,,0.35,,2013-02-13 06:11:00,
2013-02-13 00:21:00,40.0,38.0,30.09,NW,326,2.0,9.0,93,0.01,,,0.35,,2013-02-13 06:21:00,
2013-02-13 00:32:00,39.0,37.0,30.10,ESE,115,2.0,6.0,92,0.00,,,0.35,,2013-02-13 06:32:00,
2013-02-13 00:42:00,39.0,37.0,30.10,ESE,115,2.0,6.0,92,0.00,,,0.35,,2013-02-13 06:42:00,
2013-02-13 00:52:00,39.0,37.0,30.10,ESE,115,2.0,6.0,92,0.00,,,0.35,,2013-02-13 06:52:00,
2013-02-13 01:02:00,39.0,37.0,30.10,West,280,1.0,10.0,91,0.00,,,0.35,,2013-02-13 07:02:00,
2013-02-13 01:11:00,39.0,37.0,30.11,NW,321,1.0,7.0,91,0.00,,,0.35,,2013-02-13 07:11:00,
2013-02-13 01:21:00,39.0,37.0,30.11,NW,321,1.0,7.0,91,0.00,,,0.35,,2013-02-13 07:21:00,
2013-02-13 01:32:00,39.0,37.0,30.11,SW,218,1.0,8.0,91,0.00,,,0.35,,2013-02-13 07:32:00,
2013-02-13 01:42:00,39.0,37.0,30.11,West,259,0.0,6.0,91,0.00,,,0.35,,2013-02-13 07:42:00,
2013-02-13 01:51:00,39.0,37.0,30.11,West,259,0.0,6.0,91,0.00,,,0.35,,2013-02-13 07:51:00,
2013-02-13 02:01:00,39.0,36.0,30.11,SSW,197,1.0,9.0,90,0.00,,,0.35,,2013-02-13 08:01:00,
2013-02-13 02:11:00,39.0,36.0,30.11,SW,217,2.0,9.0,89,0.00,,,0.35,,2013-02-13 08:11:00,
2013-02-13 02:21:00,39.0,36.0,30.11,SW,217,2.0,9.0,89,0.00,,,0.35,,2013-02-13 08:21:00,
2013-02-13 02:32:00,39.0,36.0,30.12,WSW,256,2.0,7.0,89,0.00,,,0.35,,2013-02-13 08:32:00,
2013-02-13 02:43:00,39.0,36.0,30.12,WSW,256,2.0,7.0,89,0.00,,,0.35,,2013-02-13 08:43:00,
2013-02-13 02:52:00,39.0,36.0,30.12,WNW,293,2.0,7.0,88,0.00,,,0.35,,2013-02-13 08:52:00,
2013-02-13 03:01:00,39.0,36.0,30.12,WNW,284,3.0,10.0,88,0.00,,,0.35,,2013-02-13 09:01:00,
2013-02-13 03:11:00,39.0,36.0,30.12,WNW,286,2.0,7.0,88,0.00,,,0.35,,2013-02-13 09:11:00,
2013-02-13 03:21:00,39.0,36.0,30.12,WNW,286,2.0,7.0,88,0.00,,,0.35,,2013-02-13 09:21:00,
2013-02-13 03:31:00,38.0,35.0,30.12,NW,307,2.0,7.0,88,0.00,,,0.35,,2013-02-13 09:31:00,
2013-02-13 03:42:00,38.0,35.0,30.13,West,278,2.0,16.0,88,0.00,,,0.35,,2013-02-13 09:42:00,
2013-02-13 03:51:00,38.0,35.0,30.13,West,278,2.0,16.0,88,0.00,,,0.35,,2013-02-13 09:51:00,
2013-02-13 04:01:00,38.0,35.0,30.13,SW,231,2.0,8.0,89,0.00,,,0.35,,2013-02-13 10:01:00,
2013-02-13 04:11:00,38.0,35.0,30.13,SW,235,1.0,7.0,89,0.00,,,0.35,,2013-02-13 10:11:00,
2013-02-13 04:21:00,38.0,35.0,30.13,SW,235,1.0,7.0,89,0.00,,,0.35,,2013-02-13 10:21:00,
2013-02-13 04:32:00,38.0,35.0,30.14,NNE,30,1.0,9.0,88,0.00,,,0.35,,2013-02-13 10:32:00,
2013-02-13 04:42:00,38.0,35.0,30.13,West,268,0.0,4.0,90,0.00,,,0.35,,2013-02-13 10:42:00,
2013-02-13 04:51:00,38.0,35.0,30.13,West,268,0.0,4.0,90,0.00,,,0.35,,2013-02-13 10:51:00,
2013-02-13 05:01:00,38.0,35.0,30.14,SW,228,0.0,5.0,89,0.00,,,0.35,,2013-02-13 11:01:00,
2013-02-13 05:11:00,38.0,35.0,30.14,West,277,1.0,7.0,89,0.00,,,0.35,,2013-02-13 11:11:00,
2013-02-13 05:22:00,38.0,35.0,30.14,West,277,1.0,7.0,89,0.00,,,0.35,,2013-02-13 11:22:00,
2013-02-13 05:32:00,38.0,35.0,30.14,WNW,298,0.0,7.0,89,0.00,,,0.34,,2013-02-13 11:32:00,
2013-02-13 05:42:00,38.0,35.0,30.15,WNW,300,1.0,5.0,88,0.00,,,0.34,,2013-02-13 11:42:00,
2013-02-13 05:52:00,38.0,35.0,30.15,WNW,300,1.0,5.0,88,0.00,,,0.34,,2013-02-13 11:52:00,
2013-02-13 06:02:00,38.0,34.0,30.15,WNW,285,1.0,11.0,87,0.00,,,0.34,,2013-02-13 12:02:00,
2013-02-13 06:11:00,38.0,34.0,30.15,West,267,1.0,10.0,87,0.00,,,0.34,,2013-02-13 12:11:00,
2013-02-13 06:21:00,38.0,34.0,30.15,West,267,1.0,10.0,87,0.00,,,0.34,,2013-02-13 12:21:00,
2013-02-13 06:32:00,38.0,34.0,30.16,SW,233,2.0,6.0,87,0.00,,,0.23,,2013-02-13 12:32:00,
2013-02-13 06:42:00,38.0,34.0,30.16,WNW,285,1.0,7.0,87,0.00,,,0.23,,2013-02-13 12:42:00,
2013-02-13 06:52:00,38.0,34.0,30.16,WNW,285,1.0,7.0,87,0.00,,,0.23,,2013-02-13 12:52:00,
2013-02-13 07:02:00,38.0,34.0,30.16,WNW,285,0.0,6.0,87,0.00,,,0.23,,2013-02-13 13:02:00,
2013-02-13 07:11:00,38.0,34.0,30.16,SSW,200,1.0,5.0,87,0.00,,,0.23,,2013-02-13 13:11:00,
2013-02-13 07:21:00,38.0,34.0,30.16,SSW,200,1.0,5.0,87,0.00,,,0.23,,2013-02-13 13:21:00,
2013-02-13 07:32:00,38.0,34.0,30.16,South,170,0.0,5.0,87,0.00,,,0.09,,2013-02-13 13:32:00,
2013-02-13 07:42:00,38.0,35.0,30.17,WNW,293,0.0,4.0,88,0.00,,,0.09,,2013-02-13 13:42:00,
2013-02-13 07:51:00,38.0,35.0,30.17,WNW,293,0.0,4.0,88,0.00,,,0.09,,2013-02-13 13:51:00,
2013-02-13 08:01:00,38.0,34.0,30.17,West,263,2.0,8.0,87,0.00,,,0.09,,2013-02-13 14:01:00,
2013-02-13 08:11:00,38.0,34.0,30.18,NNW,335,1.0,6.0,87,0.00,,,0.09,,2013-02-13 14:11:00,
2013-02-13 08:21:00,38.0,34.0,30.18,NNW,335,1.0,6.0,87,0.00,,,0.09,,2013-02-13 14:21:00,
2013-02-13 08:31:00,38.0,34.0,30.19,WSW,250,0.0,5.0,87,0.00,,,0.09,,2013-02-13 14:31:00,
2013-02-13 08:42:00,39.0,35.0,30.19,WSW,244,0.0,4.0,87,0.00,,,0.09,,2013-02-13 14:42:00,
2013-02-13 08:52:00,39.0,35.0,30.19,WSW,244,0.0,4.0,87,0.00,,,0.09,,2013-02-13 14:52:00,
2013-02-13 09:01:00,39.0,36.0,30.19,WNW,291,0.0,3.0,88,0.00,,,0.09,,2013-02-13 15:01:00,
2013-02-13 09:11:00,39.0,35.0,30.20,NW,305,0.0,3.0,87,0.00,,,0.09,,2013-02-13 15:11:00,
2013-02-13 09:21:00,39.0,35.0,30.20,NW,305,0.0,3.0,87,0.00,,,0.09,,2013-02-13 15:21:00,
2013-02-13 09:32:00,39.0,35.0,30.20,West,262,0.0,3.0,86,0.00,,,0.06,,2013-02-13 15:32:00,
2013-02-13 09:42:00,39.0,35.0,30.20,West,262,0.0,3.0,86,0.00,,,0.06,,2013-02-13 15:42:00,
2013-02-13 09:51:00,39.0,35.0,30.20,West,262,0.0,3.0,86,0.00,,,0.06,,2013-02-13 15:51:00,
2013-02-13 10:01:00,40.0,36.0,30.21,South,184,0.0,4.0,84,0.00,,,0.06,,2013-02-13 16:01:00,
2013-02-13 10:11:00,41.0,36.0,30.22,WSW,245,0.0,3.0,83,0.00,,,0.06,,2013-02-13 16:11:00,
2013-02-13 10:21:00,41.0,36.0,30.22,WSW,245,0.0,3.0,83,0.00,,,0.06,,2013-02-13 16:21:00,
2013-02-13 10:31:00,42.0,37.0,30.22,SW,218,0.0,4.0,81,0.00,,,0.02,,2013-02-13 16:31:00,
2013-02-13 10:42:00,42.0,37.0,30.22,West,274,0.0,2.0,81,0.00,,,0.02,,2013-02-13 16:42:00,
2013-02-13 10:51:00,42.0,37.0,30.22,West,274,0.0,2.0,81,0.00,,,0.02,,2013-02-13 16:51:00,
2013-02-13 11:01:00,43.0,38.0,30.22,SW,225,0.0,2.0,81,0.00,,,0.02,,2013-02-13 17:01:00,
2013-02-13 11:11:00,43.0,37.0,30.22,SW,232,0.0,3.0,79,0.00,,,0.02,,2013-02-13 17:11:00,
2013-02-13 11:21:00,43.0,37.0,30.22,SW,232,0.0,3.0,79,0.00,,,0.02,,2013-02-13 17:21:00,
2013-02-13 11:32:00,44.0,38.0,30.22,SSE,163,0.0,4.0,78,0.00,,,0.02,,2013-02-13 17:32:00,
2013-02-13 11:42:00,44.0,38.0,30.22,SSE,163,0.0,4.0,78,0.00,,,0.02,,2013-02-13 17:42:00,
2013-02-13 11:52:00,45.0,37.0,30.22,SSW,193,0.0,4.0,74,0.00,,,0.02,,2013-02-13 17:52:00,
2013-02-13 12:01:00,46.0,38.0,30.21,ESE,122,0.0,3.0,73,0.00,,,0.02,,2013-02-13 18:01:00,
2013-02-13 12:11:00,46.0,38.0,30.20,West,276,0.0,2.0,73,0.00,,,0.02,,2013-02-13 18:11:00,
2013-02-13 12:22:00,46.0,38.0,30.20,West,276,0.0,2.0,73,0.00,,,0.02,,2013-02-13 18:22:00,
2013-02-13 12:32:00,48.0,39.0,30.20,SSW,195,0.0,5.0,70,0.00,,,0.02,,2013-02-13 18:32:00,
2013-02-13 12:42:00,48.0,39.0,30.20,SSW,195,0.0,5.0,70,0.00,,,0.02,,2013-02-13 18:42:00,
2013-02-13 12:52:00,48.0,38.0,30.19,SSW,210,1.0,3.0,68,0.00,,,0.02,,2013-02-13 18:52:00,
2013-02-13 13:01:00,48.0,38.0,30.19,SSW,210,1.0,3.0,68,0.00,,,0.02,,2013-02-13 19:01:00,
2013-02-13 13:11:00,48.0,36.0,30.17,NE,47,1.0,3.0,63,0.00,,,0.02,,2013-02-13 19:11:00,
2013-02-13 13:21:00,48.0,36.0,30.17,NE,47,1.0,3.0,63,0.00,,,0.02,,2013-02-13 19:21:00,
2013-02-13 13:32:00,50.0,37.0,30.16,SW,225,1.0,5.0,60,0.00,,,0.02,,2013-02-13 19:32:00,
2013-02-13 13:42:00,51.0,37.0,30.15,SW,219,0.0,2.0,58,0.00,,,0.02,,2013-02-13 19:42:00,
2013-02-13 13:51:00,51.0,37.0,30.15,SW,219,0.0,2.0,58,0.00,,,0.02,,2013-02-13 19:51:00,
2013-02-13 14:02:00,52.0,36.0,30.14,SW,225,0.0,3.0,55,0.00,,,0.02,,2013-02-13 20:02:00,
2013-02-13 14:11:00,52.0,37.0,30.13,West,266,0.0,4.0,56,0.00,,,0.02,,2013-02-13 20:11:00,
2013-02-13 14:21:00,52.0,37.0,30.13,West,266,0.0,4.0,56,0.00,,,0.02,,2013-02-13 20:21:00,
2013-02-13 14:31:00,52.0,36.0,30.12,NNW,330,0.0,3.0,55,0.00,,,0.02,,2013-02-13 20:31:00,
2013-02-13 14:42:00,53.0,35.0,30.12,SSW,205,1.0,4.0,51,0.00,,,0.02,,2013-02-13 20:42:00,
2013-02-13 14:52:00,53.0,35.0,30.12,SSW,205,1.0,4.0,51,0.00,,,0.02,,2013-02-13 20:52:00,
2013-02-13 15:01:00,54.0,37.0,30.11,South,183,0.0,2.0,52,0.00,,,0.02,,2013-02-13 21:01:00,
2013-02-13 15:11:00,54.0,36.0,30.11,SW,233,2.0,5.0,51,0.00,,,0.02,,2013-02-13 21:11:00,
2013-02-13 15:21:00,54.0,36.0,30.11,SW,233,2.0,5.0,51,0.00,,,0.02,,2013-02-13 21:21:00,
2013-02-13 15:31:00,54.0,36.0,30.11,SW,219,0.0,1.0,50,0.00,,,0.02,,2013-02-13 21:31:00,
2013-02-13 15:42:00,55.0,36.0,30.10,SSW,193,2.0,6.0,48,0.00,,,0.02,,2013-02-13 21:42:00,
2013-02-13 15:52:00,55.0,36.0,30.10,SSW,193,2.0,6.0,48,0.00,,,0.02,,2013-02-13 21:52:00,
2013-02-13 16:02:00,55.0,37.0,30.09,SW,236,0.0,4.0,51,0.00,,,0.02,,2013-02-13 22:02:00,
2013-02-13 16:11:00,55.0,36.0,30.09,West,266,1.0,6.0,49,0.00,,,0.02,,2013-02-13 22:11:00,
2013-02-13 16:21:00,55.0,36.0,30.09,West,266,1.0,6.0,49,0.00,,,0.02,,2013-02-13 22:21:00,
2013-02-13 16:31:00,56.0,36.0,30.09,SW,214,2.0,5.0,46,0.00,,,0.02,,2013-02-13 22:31:00,
2013-02-13 16:42:00,56.0,36.0,30.09,SW,214,2.0,5.0,46,0.00,,,0.02,,2013-02-13 22:42:00,
2013-02-13 16:51:00,55.0,35.0,30.09,SW,236,0.0,3.0,47,0.00,,,0.02,,2013-02-13 22:51:00,
2013-02-13 17:01:00,55.0,35.0,30.09,South,188,0.0,2.0,47,0.00,,,0.02,,2013-02-13 23:01:00,
2013-02-13 17:11:00,56.0,36.0,30.09,West,274,1.0,3.0,46,0.00,,,0.02,,2013-02-13 23:11:00,
2013-02-13 17:21:00,56.0,36.0,30.09,West,274,1.0,3.0,46,0.00,,,0.02,,2013-02-13 23:21:00,
2013-02-13 17:32:00,56.0,36.0,30.09,ENE,74,0.0,3.0,46,0.00,,,0.02,,2013-02-13 23:32:00,
2013-02-13 17:42:00,56.0,34.0,30.08,South,174,1.0,4.0,44,0.00,,,0.02,,2013-02-13 23:42:00,
2013-02-13 17:52:00,56.0,34.0,30.08,South,174,1.0,4.0,44,0.00,,,0.02,,2013-02-13 23:52:00,
2013-02-13 18:02:00,54.0,33.0,30.08,SSW,208,0.0,4.0,45,0.00,,,0.02,,2013-02-14 00:02:00,
2013-02-13 18:11:00,54.0,33.0,30.08,SSW,208,0.0,4.0,45,0.00,,,0.02,,2013-02-14 00:11:00,
2013-02-13 18:21:00,54.0,35.0,30.08,SE,127,0.0,3.0,48,0.00,,,0.02,,2013-02-14 00:21:00,
2013-02-13 18:32:00,52.0,35.0,30.08,SSE,152,0.0,1.0,53,0.00,,,0.02,,2013-02-14 00:32:00,
2013-02-13 18:42:00,52.0,35.0,30.08,SSE,152,0.0,1.0,53,0.00,,,0.02,,2013-02-14 00:42:00,
2013-02-13 18:51:00,51.0,36.0,30.08,SSE,160,0.0,1.0,57,0.00,,,0.02,,2013-02-14 00:51:00,
2013-02-13 19:01:00,50.0,36.0,30.08,East,101,0.0,1.0,59,0.00,,,0.02,,2013-02-14 01:01:00,
2013-02-13 19:11:00,48.0,36.0,30.08,SE,131,0.0,1.0,63,0.00,,,0.02,,2013-02-14 01:11:00,
2013-02-13 19:21:00,48.0,36.0,30.08,SE,131,0.0,1.0,63,0.00,,,0.02,,2013-02-14 01:21:00,
2013-02-13 19:31:00,46.0,36.0,30.08,SE,130,0.0,0.0,67,0.00,,,0.02,,2013-02-14 01:31:00,
2013-02-13 19:41:00,46.0,36.0,30.08,SE,130,0.0,0.0,67,0.00,,,0.02,,2013-02-14 01:41:00,
2013-02-13 19:51:00,46.0,36.0,30.08,SE,129,0.0,0.0,69,0.00,,,0.02,,2013-02-14 01:51:00,
2013-02-13 20:01:00,46.0,36.0,30.08,SE,129,0.0,0.0,69,0.00,,,0.02,,2013-02-14 02:01:00,
2013-02-13 20:11:00,46.0,36.0,30.09,NE,49,0.0,1.0,69,0.00,,,0.02,,2013-02-14 02:11:00,
2013-02-13 20:21:00,46.0,36.0,30.09,NE,49,0.0,1.0,69,0.00,,,0.02,,2013-02-14 02:21:00,
2013-02-13 20:31:00,46.0,36.0,30.09,ESE,117,0.0,1.0,68,0.00,,,0.02,,2013-02-14 02:31:00,
2013-02-13 20:41:00,46.0,36.0,30.09,ESE,117,0.0,1.0,68,0.00,,,0.02,,2013-02-14 02:41:00,
2013-02-13 20:51:00,46.0,36.0,30.09,ESE,117,0.0,1.0,68,0.00,,,0.02,,2013-02-14 02:51:00,
2013-02-13 21:02:00,45.0,36.0,30.09,ESE,117,0.0,0.0,71,0.00,,,0.02,,2013-02-14 03:02:00,
2013-02-13 21:11:00,44.0,36.0,30.09,East,91,0.0,1.0,74,0.00,,,0.02,,2013-02-14 03:11:00,
2013-02-13 21:21:00,44.0,36.0,30.09,East,91,0.0,1.0,74,0.00,,,0.02,,2013-02-14 03:21:00,
2013-02-13 21:31:00,43.0,36.0,30.10,East,91,0.0,0.0,76,0.00,,,0.02,,2013-02-14 03:31:00,
2013-02-13 21:42:00,43.0,36.0,30.10,East,91,0.0,0.0,76,0.00,,,0.02,,2013-02-14 03:42:00,
2013-02-13 21:51:00,43.0,36.0,30.10,East,91,0.0,0.0,76,0.00,,,0.02,,2013-02-14 03:51:00,
2013-02-13 22:01:00,41.0,35.0,30.10,East,91,0.0,0.0,80,0.00,,,0.02,,2013-02-14 04:01:00,
2013-02-13 22:12:00,41.0,36.0,30.10,East,91,0.0,1.0,83,0.00,,,0.02,,2013-02-14 04:12:00,
2013-02-13 22:21:00,41.0,36.0,30.10,East,91,0.0,1.0,83,0.00,,,0.02,,2013-02-14 04:21:00,
2013-02-13 22:31:00,41.0,36.0,30.11,East,91,0.0,0.0,83,0.00,,,0.01,,2013-02-14 04:31:00,
2013-02-13 22:41:00,41.0,36.0,30.11,East,91,0.0,0.0,83,0.00,,,0.01,,2013-02-14 04:41:00,
2013-02-13 22:51:00,42.0,37.0,30.11,SSE,153,0.0,2.0,81,0.00,,,0.01,,2013-02-14 04:51:00,
2013-02-13 23:02:00,43.0,37.0,30.11,SE,139,0.0,4.0,79,0.00,,,0.01,,2013-02-14 05:02:00,
2013-02-13 23:11:00,43.0,37.0,30.11,SE,139,0.0,4.0,79,0.00,,,0.01,,2013-02-14 05:11:00,
2013-02-13 23:21:00,43.0,37.0,30.11,WSW,238,0.0,1.0,80,0.00,,,0.01,,2013-02-14 05:21:00,
2013-02-13 23:31:00,43.0,37.0,30.11,WSW,238,0.0,1.0,80,0.00,,,0.01,,2013-02-14 05:31:00,
2013-02-13 23:42:00,43.0,37.0,30.11,WSW,238,0.0,1.0,80,0.00,,,0.01,,2013-02-14 05:42:00,
2013-02-13 23:52:00,42.0,37.0,30.11,SSE,150,0.0,1.0,81,0.00,,,0.01,,2013-02-14 05:52:00,